Time,TemperatureF,DewpointF,PressureIn,WindDirection,WindDirectionDegrees,WindSpeedMPH,WindSpeedGustMPH,Humidity,HourlyPrecipIn,Conditions,Clouds,dailyrainin,SoftwareType,DateUTC
2013-01-17 00:02:00,22.2,19.7,29.82,West,277,0.0,0.0,90,0.00,,,0.21,Wunderground v.1.13,2013-01-17 05:02:00,
2013-01-17 00:05:00,22.1,19.6,29.82,West,277,0.0,0.0,90,0.00,,,0.00,Wunderground v.1.13,2013-01-17 05:05:00,
2013-01-17 00:08:00,22.0,19.5,29.82,West,277,0.0,0.0,90,0.00,,,0.00,Wunderground v.1.13,2013-01-17 05:08:00,
2013-01-17 00:09:00,22.0,19.3,29.82,West,277,0.0,0.0,89,0.00,,,0.00,Wunderground v.1.13,2013-01-17 05:09:00,
2013-01-17 00:15:00,21.8,19.1,29.82,West,277,0.0,0.0,89,0.00,,,0.00,Wunderground v.1.13,2013-01-17 05:15:00,
2013-01-17 00:21:00,21.8,19.1,29.82,West,277,0.0,1.0,89,0.00,,,0.00,Wunderground v.1.13,2013-01-17 05:21:00,
2013-01-17 00:26:00,21.4,18.7,29.82,West,277,0.0,2.0,89,0.00,,,0.00,Wunderground v.1.13,2013-01-17 05:26:00,
2013-01-17 00:32:00,21.3,18.6,29.83,West,277,0.0,0.0,89,0.00,,,0.00,Wunderground v.1.13,2013-01-17 05:32:00,
2013-01-17 00:37:00,21.3,18.6,29.83,West,277,0.0,2.0,89,0.00,,,0.00,Wunderground v.1.13,2013-01-17 05:37:00,
2013-01-17 00:43:00,21.5,19.0,29.83,West,277,0.0,0.0,90,0.00,,,0.00,Wunderground v.1.13,2013-01-17 05:43:00,
2013-01-17 00:49:00,21.4,18.9,29.83,West,277,0.0,2.0,90,0.00,,,0.00,Wunderground v.1.13,2013-01-17 05:49:00,
2013-01-17 00:55:00,21.2,18.5,29.84,West,277,0.0,0.0,89,0.00,,,0.00,Wunderground v.1.13,2013-01-17 05:55:00,
2013-01-17 01:00:00,21.3,18.8,29.84,West,277,0.0,0.0,90,0.00,,,0.00,Wunderground v.1.13,2013-01-17 06:00:00,
2013-01-17 01:05:00,21.5,19.0,29.84,West,277,0.0,0.0,90,0.00,,,0.00,Wunderground v.1.13,2013-01-17 06:05:00,
2013-01-17 01:11:00,21.5,19.0,29.84,West,277,1.0,1.0,90,0.00,,,0.00,Wunderground v.1.13,2013-01-17 06:11:00,
2013-01-17 01:17:00,21.6,19.1,29.84,West,276,0.0,0.0,90,0.00,,,0.00,Wunderground v.1.13,2013-01-17 06:17:00,
2013-01-17 01:23:00,21.7,19.2,29.84,West,277,0.0,1.0,90,0.00,,,0.00,Wunderground v.1.13,2013-01-17 06:23:00,
2013-01-17 01:28:00,21.8,19.3,29.84,West,276,0.0,0.0,90,0.00,,,0.00,Wunderground v.1.13,2013-01-17 06:28:00,
2013-01-17 01:34:00,22.0,19.5,29.84,West,277,0.0,1.0,90,0.00,,,0.00,Wunderground v.1.13,2013-01-17 06:34:00,
2013-01-17 01:39:00,21.7,19.2,29.84,West,277,0.0,0.0,90,0.00,,,0.00,Wunderground v.1.13,2013-01-17 06:39:00,
2013-01-17 01:45:00,21.7,19.2,29.85,West,276,0.0,0.0,90,0.00,,,0.00,Wunderground v.1.13,2013-01-17 06:45:00,
2013-01-17 01:51:00,21.8,19.3,29.85,West,277,0.0,0.0,90,0.00,,,0.00,Wunderground v.1.13,2013-01-17 06:51:00,
2013-01-17 01:57:00,21.6,19.1,29.84,West,277,0.0,0.0,90,0.00,,,0.00,Wunderground v.1.13,2013-01-17 06:57:00,
2013-01-17 02:02:00,21.8,19.3,29.84,West,277,0.0,0.0,90,0.00,,,0.00,Wunderground v.1.13,2013-01-17 07:02:00,
2013-01-17 02:08:00,21.9,19.4,29.85,West,277,0.0,0.0,90,0.00,,,0.00,Wunderground v.1.13,2013-01-17 07:08:00,
2013-01-17 02:13:00,22.1,19.6,29.85,West,276,0.0,0.0,90,0.00,,,0.00,Wunderground v.1.13,2013-01-17 07:13:00,
2013-01-17 02:19:00,22.4,19.9,29.85,West,276,0.0,0.0,90,0.00,,,0.00,Wunderground v.1.13,2013-01-17 07:19:00,
2013-01-17 02:24:00,22.5,20.0,29.85,West,276,0.0,0.0,90,0.00,,,0.00,Wunderground v.1.13,2013-01-17 07:24:00,
2013-01-17 02:30:00,22.7,20.2,29.84,West,276,0.0,0.0,90,0.00,,,0.00,Wunderground v.1.13,2013-01-17 07:30:00,
2013-01-17 02:35:00,22.7,20.2,29.84,West,277,0.0,0.0,90,0.00,,,0.00,Wunderground v.1.13,2013-01-17 07:35:00,
2013-01-17 02:41:00,22.4,19.9,29.83,West,277,0.0,0.0,90,0.00,,,0.00,Wunderground v.1.13,2013-01-17 07:41:00,
2013-01-17 02:47:00,22.2,19.7,29.83,West,277,0.0,0.0,90,0.00,,,0.00,Wunderground v.1.13,2013-01-17 07:47:00,
2013-01-17 02:52:00,22.0,19.3,29.83,West,276,0.0,0.0,89,0.00,,,0.00,Wunderground v.1.13,2013-01-17 07:52:00,
2013-01-17 02:58:00,21.9,19.2,29.83,West,277,0.0,0.0,89,0.00,,,0.00,Wunderground v.1.13,2013-01-17 07:58:00,
2013-01-17 03:04:00,22.0,19.3,29.83,West,277,0.0,2.0,89,0.00,,,0.00,Wunderground v.1.13,2013-01-17 08:04:00,
2013-01-17 03:09:00,22.2,19.7,29.83,West,276,0.0,0.0,90,0.00,,,0.00,Wunderground v.1.13,2013-01-17 08:09:00,
2013-01-17 03:15:00,22.3,19.8,29.82,West,277,0.0,0.0,90,0.00,,,0.00,Wunderground v.1.13,2013-01-17 08:15:00,
2013-01-17 03:21:00,22.2,19.7,29.83,West,277,0.0,0.0,90,0.00,,,0.00,Wunderground v.1.13,2013-01-17 08:21:00,
2013-01-17 03:26:00,22.3,19.8,29.83,West,276,0.0,0.0,90,0.00,,,0.00,Wunderground v.1.13,2013-01-17 08:26:00,
2013-01-17 03:31:00,22.4,19.9,29.83,West,277,0.0,0.0,90,0.00,,,0.00,Wunderground v.1.13,2013-01-17 08:31:00,
2013-01-17 03:37:00,23.1,20.6,29.83,West,276,0.0,2.0,90,0.00,,,0.00,Wunderground v.1.13,2013-01-17 08:37:00,
2013-01-17 03:42:00,23.4,20.9,29.83,West,277,0.0,1.0,90,0.00,,,0.00,Wunderground v.1.13,2013-01-17 08:42:00,
2013-01-17 03:48:00,24.1,21.9,29.83,SW,217,1.0,1.0,91,0.00,,,0.00,Wunderground v.1.13,2013-01-17 08:48:00,
2013-01-17 03:53:00,24.5,22.2,29.83,SW,217,0.0,1.0,91,0.00,,,0.00,Wunderground v.1.13,2013-01-17 08:53:00,
2013-01-17 03:59:00,24.8,22.5,29.83,WNW,299,0.0,2.0,91,0.00,,,0.00,Wunderground v.1.13,2013-01-17 08:59:00,
2013-01-17 04:04:00,25.1,22.8,29.83,SSE,152,0.0,2.0,91,0.00,,,0.00,Wunderground v.1.13,2013-01-17 09:04:00,
2013-01-17 04:10:00,25.3,23.0,29.83,SSE,153,1.0,1.0,91,0.00,,,0.00,Wunderground v.1.13,2013-01-17 09:10:00,
2013-01-17 04:16:00,25.5,23.2,29.83,SSE,153,0.0,0.0,91,0.00,,,0.00,Wunderground v.1.13,2013-01-17 09:16:00,
2013-01-17 04:22:00,25.7,23.4,29.83,SSE,153,0.0,0.0,91,0.00,,,0.00,Wunderground v.1.13,2013-01-17 09:22:00,
2013-01-17 04:27:00,25.8,23.3,29.83,SSE,153,0.0,0.0,90,0.00,,,0.00,Wunderground v.1.13,2013-01-17 09:27:00,
2013-01-17 04:33:00,26.0,23.7,29.84,SSE,153,0.0,0.0,91,0.00,,,0.00,Wunderground v.1.13,2013-01-17 09:33:00,
2013-01-17 04:38:00,26.2,23.9,29.84,SSE,153,0.0,0.0,91,0.00,,,0.00,Wunderground v.1.13,2013-01-17 09:38:00,
2013-01-17 04:44:00,26.5,24.2,29.84,SSE,153,0.0,0.0,91,0.00,,,0.00,Wunderground v.1.13,2013-01-17 09:44:00,
2013-01-17 04:49:00,26.7,24.4,29.83,SSE,153,0.0,0.0,91,0.00,,,0.00,Wunderground v.1.13,2013-01-17 09:49:00,
2013-01-17 04:55:00,26.9,24.6,29.84,SSE,153,0.0,0.0,91,0.00,,,0.00,Wunderground v.1.13,2013-01-17 09:55:00,
2013-01-17 05:00:00,27.1,24.8,29.84,SSE,153,0.0,0.0,91,0.00,,,0.00,Wunderground v.1.13,2013-01-17 10:00:00,
2013-01-17 05:05:00,27.4,25.1,29.84,SSE,153,0.0,0.0,91,0.00,,,0.00,Wunderground v.1.13,2013-01-17 10:05:00,
2013-01-17 05:11:00,27.5,25.2,29.84,SSE,153,0.0,0.0,91,0.00,,,0.00,Wunderground v.1.13,2013-01-17 10:11:00,
2013-01-17 05:17:00,27.6,25.3,29.84,SSE,153,0.0,0.0,91,0.00,,,0.00,Wunderground v.1.13,2013-01-17 10:17:00,
2013-01-17 05:22:00,27.6,25.3,29.84,SSE,153,0.0,0.0,91,0.00,,,0.00,Wunderground v.1.13,2013-01-17 10:22:00,
2013-01-17 05:28:00,27.6,25.3,29.85,SSE,153,0.0,0.0,91,0.00,,,0.00,Wunderground v.1.13,2013-01-17 10:28:00,
2013-01-17 05:33:00,27.8,25.5,29.85,SSE,153,0.0,0.0,91,0.00,,,0.00,Wunderground v.1.13,2013-01-17 10:33:00,
2013-01-17 05:39:00,27.9,25.3,29.85,SSE,153,0.0,0.0,90,0.00,,,0.00,Wunderground v.1.13,2013-01-17 10:39:00,
2013-01-17 05:44:00,27.9,25.3,29.85,SSE,153,0.0,0.0,90,0.00,,,0.00,Wunderground v.1.13,2013-01-17 10:44:00,
2013-01-17 05:50:00,28.0,25.4,29.85,SSE,153,0.0,0.0,90,0.00,,,0.00,Wunderground v.1.13,2013-01-17 10:50:00,
2013-01-17 05:55:00,28.0,25.4,29.85,SSE,153,0.0,0.0,90,0.00,,,0.00,Wunderground v.1.13,2013-01-17 10:55:00,
2013-01-17 06:01:00,28.1,25.5,29.85,SSE,153,0.0,0.0,90,0.00,,,0.00,Wunderground v.1.13,2013-01-17 11:01:00,
2013-01-17 06:07:00,28.2,25.9,29.85,SSE,153,0.0,0.0,91,0.00,,,0.00,Wunderground v.1.13,2013-01-17 11:07:00,
2013-01-17 06:12:00,28.3,25.7,29.85,SSE,153,0.0,0.0,90,0.00,,,0.00,Wunderground v.1.13,2013-01-17 11:12:00,
2013-01-17 06:18:00,28.3,25.7,29.86,SSE,153,0.0,0.0,90,0.00,,,0.00,Wunderground v.1.13,2013-01-17 11:18:00,
2013-01-17 06:24:00,28.4,25.8,29.86,SSE,153,0.0,0.0,90,0.00,,,0.00,Wunderground v.1.13,2013-01-17 11:24:00,
2013-01-17 06:30:00,28.4,25.8,29.86,SSE,153,0.0,2.0,90,0.00,,,0.00,Wunderground v.1.13,2013-01-17 11:30:00,
2013-01-17 06:35:00,28.5,25.9,29.86,SSE,153,0.0,0.0,90,0.00,,,0.00,Wunderground v.1.13,2013-01-17 11:35:00,
2013-01-17 06:41:00,28.5,25.9,29.86,SSE,153,0.0,0.0,90,0.00,,,0.00,Wunderground v.1.13,2013-01-17 11:41:00,
2013-01-17 06:46:00,28.4,25.8,29.87,SSE,152,0.0,0.0,90,0.00,,,0.00,Wunderground v.1.13,2013-01-17 11:46:00,
2013-01-17 06:52:00,28.5,25.9,29.87,SSE,153,0.0,0.0,90,0.00,,,0.00,Wunderground v.1.13,2013-01-17 11:52:00,
2013-01-17 06:57:00,28.6,26.0,29.87,SSE,153,0.0,0.0,90,0.00,,,0.00,Wunderground v.1.13,2013-01-17 11:57:00,
2013-01-17 07:03:00,28.6,26.0,29.87,SSE,153,0.0,0.0,90,0.00,,,0.00,Wunderground v.1.13,2013-01-17 12:03:00,
2013-01-17 07:08:00,28.5,25.9,29.88,SSE,153,0.0,0.0,90,0.00,,,0.00,Wunderground v.1.13,2013-01-17 12:08:00,
2013-01-17 07:14:00,28.4,25.8,29.87,SSE,153,0.0,0.0,90,0.00,,,0.00,Wunderground v.1.13,2013-01-17 12:14:00,
2013-01-17 07:19:00,28.3,25.7,29.88,SSE,153,0.0,1.0,90,0.00,,,0.00,Wunderground v.1.13,2013-01-17 12:19:00,
2013-01-17 07:25:00,28.2,25.6,29.88,SSE,153,0.0,0.0,90,0.00,,,0.00,Wunderground v.1.13,2013-01-17 12:25:00,
2013-01-17 07:30:00,28.2,25.6,29.89,SSE,153,0.0,0.0,90,0.00,,,0.00,Wunderground v.1.13,2013-01-17 12:30:00,
2013-01-17 07:36:00,28.1,25.5,29.89,SSE,153,0.0,0.0,90,0.00,,,0.00,Wunderground v.1.13,2013-01-17 12:36:00,
2013-01-17 07:42:00,28.3,25.7,29.89,SSE,153,0.0,0.0,90,0.00,,,0.00,Wunderground v.1.13,2013-01-17 12:42:00,
2013-01-17 07:47:00,28.4,25.8,29.89,SSE,153,0.0,0.0,90,0.00,,,0.00,Wunderground v.1.13,2013-01-17 12:47:00,
2013-01-17 07:52:00,28.6,26.0,29.90,SSW,205,0.0,2.0,90,0.00,,,0.00,Wunderground v.1.13,2013-01-17 12:52:00,
2013-01-17 07:57:00,29.0,26.2,29.90,South,190,0.0,1.0,89,0.00,,,0.00,Wunderground v.1.13,2013-01-17 12:57:00,
2013-01-17 08:03:00,29.2,26.4,29.90,South,190,0.0,0.0,89,0.00,,,0.00,Wunderground v.1.13,2013-01-17 13:03:00,
2013-01-17 08:09:00,29.4,26.3,29.91,South,190,0.0,1.0,88,0.00,,,0.00,Wunderground v.1.13,2013-01-17 13:09:00,
2013-01-17 08:15:00,29.6,26.5,29.91,South,190,0.0,0.0,88,0.00,,,0.00,Wunderground v.1.13,2013-01-17 13:15:00,
2013-01-17 08:20:00,29.5,26.4,29.91,South,190,0.0,1.0,88,0.00,,,0.00,Wunderground v.1.13,2013-01-17 13:20:00,
2013-01-17 08:25:00,29.7,26.6,29.92,South,190,0.0,0.0,88,0.00,,,0.00,Wunderground v.1.13,2013-01-17 13:25:00,
2013-01-17 08:31:00,29.6,26.5,29.92,South,190,0.0,0.0,88,0.00,,,0.00,Wunderground v.1.13,2013-01-17 13:31:00,
2013-01-17 08:37:00,29.6,26.5,29.93,South,190,0.0,0.0,88,0.00,,,0.00,Wunderground v.1.13,2013-01-17 13:37:00,
2013-01-17 08:42:00,29.7,26.6,29.93,South,190,0.0,0.0,88,0.00,,,0.00,Wunderground v.1.13,2013-01-17 13:42:00,
2013-01-17 08:48:00,29.8,26.7,29.93,South,190,0.0,0.0,88,0.00,,,0.00,Wunderground v.1.13,2013-01-17 13:48:00,
2013-01-17 08:53:00,30.1,27.0,29.93,South,183,0.0,1.0,88,0.00,,,0.00,Wunderground v.1.13,2013-01-17 13:53:00,
2013-01-17 08:59:00,30.5,27.1,29.93,South,183,0.0,0.0,87,0.00,,,0.00,Wunderground v.1.13,2013-01-17 13:59:00,
2013-01-17 09:04:00,30.7,27.3,29.93,South,183,0.0,0.0,87,0.00,,,0.00,Wunderground v.1.13,2013-01-17 14:04:00,
2013-01-17 09:09:00,30.8,27.4,29.93,ENE,77,0.0,1.0,87,0.00,,,0.00,Wunderground v.1.13,2013-01-17 14:09:00,
2013-01-17 09:15:00,31.0,27.0,29.94,NNE,15,1.0,1.0,85,0.00,,,0.00,Wunderground v.1.13,2013-01-17 14:15:00,
2013-01-17 09:20:00,31.2,27.2,29.93,ENE,74,1.0,1.0,85,0.00,,,0.00,Wunderground v.1.13,2013-01-17 14:20:00,
2013-01-17 09:26:00,31.4,27.4,29.94,ENE,74,0.0,1.0,85,0.00,,,0.00,Wunderground v.1.13,2013-01-17 14:26:00,
2013-01-17 09:31:00,31.8,27.2,29.94,NE,37,1.0,1.0,83,0.00,,,0.00,Wunderground v.1.13,2013-01-17 14:31:00,
2013-01-17 09:37:00,32.2,27.9,29.94,NE,44,1.0,1.0,84,0.00,,,0.00,Wunderground v.1.13,2013-01-17 14:37:00,
2013-01-17 09:42:00,32.3,28.0,29.94,West,275,1.0,1.0,84,0.00,,,0.00,Wunderground v.1.13,2013-01-17 14:42:00,
2013-01-17 09:48:00,32.7,27.8,29.94,NNE,28,1.0,2.0,82,0.00,,,0.00,Wunderground v.1.13,2013-01-17 14:48:00,
2013-01-17 09:53:00,33.0,27.8,29.94,NW,314,1.0,4.0,81,0.00,,,0.00,Wunderground v.1.13,2013-01-17 14:53:00,
2013-01-17 09:59:00,33.2,27.7,29.94,East,88,2.0,4.0,80,0.00,,,0.00,Wunderground v.1.13,2013-01-17 14:59:00,
2013-01-17 10:05:00,33.5,27.7,29.95,SE,133,2.0,3.0,79,0.00,,,0.00,Wunderground v.1.13,2013-01-17 15:05:00,
2013-01-17 10:11:00,33.8,27.7,29.94,NNE,28,3.0,3.0,78,0.00,,,0.00,Wunderground v.1.13,2013-01-17 15:11:00,
2013-01-17 10:17:00,34.1,28.0,29.94,NE,40,2.0,3.0,78,0.00,,,0.00,Wunderground v.1.13,2013-01-17 15:17:00,
2013-01-17 10:22:00,34.3,28.2,29.94,NE,38,1.0,2.0,78,0.00,,,0.00,Wunderground v.1.13,2013-01-17 15:22:00,
2013-01-17 10:28:00,34.4,27.9,29.94,NNW,345,2.0,6.0,77,0.00,,,0.00,Wunderground v.1.13,2013-01-17 15:28:00,
2013-01-17 10:33:00,34.4,27.6,29.94,WNW,285,2.0,6.0,76,0.00,,,0.00,Wunderground v.1.13,2013-01-17 15:33:00,
2013-01-17 10:39:00,34.4,27.9,29.95,SSE,155,2.0,3.0,77,0.00,,,0.00,Wunderground v.1.13,2013-01-17 15:39:00,
2013-01-17 10:44:00,34.2,28.1,29.95,West,279,2.0,10.0,78,0.00,,,0.00,Wunderground v.1.13,2013-01-17 15:44:00,
2013-01-17 10:50:00,34.1,28.3,29.95,East,88,2.0,2.0,79,0.00,,,0.00,Wunderground v.1.13,2013-01-17 15:50:00,
2013-01-17 10:56:00,33.9,28.1,29.96,WSW,237,3.0,5.0,79,0.00,,,0.00,Wunderground v.1.13,2013-01-17 15:56:00,
2013-01-17 11:01:00,33.8,28.9,29.96,WNW,294,3.0,3.0,82,0.00,,,0.00,Wunderground v.1.13,2013-01-17 16:01:00,
2013-01-17 11:06:00,33.3,29.0,29.96,SSE,157,2.0,3.0,84,0.00,,,0.00,Wunderground v.1.13,2013-01-17 16:06:00,
2013-01-17 11:11:00,32.7,28.4,29.96,NNW,338,2.0,3.0,84,0.00,,,0.00,Wunderground v.1.13,2013-01-17 16:11:00,
2013-01-17 11:17:00,31.9,27.9,29.97,West,260,3.0,5.0,85,0.00,,,0.00,Wunderground v.1.13,2013-01-17 16:17:00,
2013-01-17 11:22:00,31.3,27.0,29.98,East,80,3.0,4.0,84,0.00,,,0.00,Wunderground v.1.13,2013-01-17 16:22:00,
2013-01-17 11:27:00,30.7,26.1,29.98,East,90,3.0,6.0,83,0.00,,,0.01,Wunderground v.1.13,2013-01-17 16:27:00,
2013-01-17 11:33:00,30.2,25.4,29.99,NE,38,4.0,6.0,82,0.00,,,0.01,Wunderground v.1.13,2013-01-17 16:33:00,
2013-01-17 11:39:00,30.1,25.3,29.99,NE,41,3.0,6.0,82,0.00,,,0.01,Wunderground v.1.13,2013-01-17 16:39:00,
2013-01-17 11:45:00,29.9,24.8,30.00,ENE,63,3.0,3.0,81,0.00,,,0.01,Wunderground v.1.13,2013-01-17 16:45:00,
2013-01-17 11:50:00,29.7,24.3,30.00,ENE,58,2.0,11.0,80,0.00,,,0.01,Wunderground v.1.13,2013-01-17 16:50:00,
2013-01-17 11:56:00,29.5,23.5,30.01,NNE,19,3.0,5.0,78,0.00,,,0.01,Wunderground v.1.13,2013-01-17 16:56:00,
2013-01-17 12:01:00,29.3,23.3,30.00,North,355,3.0,3.0,78,0.00,,,0.01,Wunderground v.1.13,2013-01-17 17:01:00,
2013-01-17 12:07:00,29.0,22.7,30.00,ENE,74,3.0,3.0,77,0.00,,,0.01,Wunderground v.1.13,2013-01-17 17:07:00,
2013-01-17 12:13:00,28.5,21.9,30.01,NNE,23,3.0,9.0,76,0.00,,,0.01,Wunderground v.1.13,2013-01-17 17:13:00,
2013-01-17 12:18:00,28.1,21.8,30.01,NNW,342,3.0,6.0,77,0.00,,,0.01,Wunderground v.1.13,2013-01-17 17:18:00,
2013-01-17 12:24:00,27.7,21.4,30.02,SSE,157,3.0,5.0,77,0.00,,,0.01,Wunderground v.1.13,2013-01-17 17:24:00,
2013-01-17 12:30:00,27.4,21.4,30.02,East,95,4.0,4.0,78,0.00,,,0.01,Wunderground v.1.13,2013-01-17 17:30:00,
2013-01-17 12:35:00,27.2,20.9,30.02,NE,52,3.0,3.0,77,0.00,,,0.01,Wunderground v.1.13,2013-01-17 17:35:00,
2013-01-17 12:41:00,27.2,20.9,30.02,NNE,19,2.0,4.0,77,0.00,,,0.01,Wunderground v.1.13,2013-01-17 17:41:00,
2013-01-17 12:47:00,27.2,20.9,30.02,NNW,327,2.0,3.0,77,0.00,,,0.01,Wunderground v.1.13,2013-01-17 17:47:00,
2013-01-17 12:52:00,27.2,20.9,30.02,NW,306,2.0,3.0,77,0.00,,,0.01,Wunderground v.1.13,2013-01-17 17:52:00,
2013-01-17 12:58:00,27.2,20.3,30.02,NE,35,2.0,3.0,75,0.00,,,0.01,Wunderground v.1.13,2013-01-17 17:58:00,
2013-01-17 13:03:00,27.1,19.9,30.02,NNW,335,2.0,5.0,74,0.00,,,0.01,Wunderground v.1.13,2013-01-17 18:03:00,
2013-01-17 13:09:00,27.0,19.8,30.02,North,5,2.0,4.0,74,0.00,,,0.01,Wunderground v.1.13,2013-01-17 18:09:00,
2013-01-17 13:15:00,27.1,19.3,30.02,NE,51,2.0,3.0,72,0.00,,,0.01,Wunderground v.1.13,2013-01-17 18:15:00,
2013-01-17 13:21:00,27.0,18.8,30.03,NNW,341,2.0,4.0,71,0.00,,,0.01,Wunderground v.1.13,2013-01-17 18:21:00,
2013-01-17 13:27:00,26.9,18.4,30.03,North,5,2.0,3.0,70,0.00,,,0.01,Wunderground v.1.13,2013-01-17 18:27:00,
2013-01-17 13:32:00,26.9,17.7,30.03,NNE,13,2.0,4.0,68,0.00,,,0.01,Wunderground v.1.13,2013-01-17 18:32:00,
2013-01-17 13:38:00,26.8,17.6,30.03,NNW,346,2.0,5.0,68,0.00,,,0.01,Wunderground v.1.13,2013-01-17 18:38:00,
2013-01-17 13:44:00,26.9,17.4,30.04,East,86,1.0,2.0,67,0.00,,,0.01,Wunderground v.1.13,2013-01-17 18:44:00,
2013-01-17 13:49:00,27.0,17.1,30.04,NE,49,2.0,4.0,66,0.00,,,0.01,Wunderground v.1.13,2013-01-17 18:49:00,
2013-01-17 13:54:00,27.2,17.3,30.04,NE,40,2.0,2.0,66,0.00,,,0.01,Wunderground v.1.13,2013-01-17 18:54:00,
2013-01-17 14:00:00,27.5,17.6,30.04,NNE,23,1.0,1.0,66,0.00,,,0.01,Wunderground v.1.13,2013-01-17 19:00:00,
2013-01-17 14:06:00,27.7,17.5,30.04,NNE,28,1.0,5.0,65,0.00,,,0.01,Wunderground v.1.13,2013-01-17 19:06:00,
2013-01-17 14:11:00,27.6,16.6,30.04,NNE,23,1.0,1.0,63,0.00,,,0.01,Wunderground v.1.13,2013-01-17 19:11:00,
2013-01-17 14:16:00,27.6,16.6,30.04,NNE,13,1.0,3.0,63,0.00,,,0.01,Wunderground v.1.13,2013-01-17 19:16:00,
2013-01-17 14:22:00,27.4,16.4,30.04,ENE,64,2.0,2.0,63,0.00,,,0.01,Wunderground v.1.13,2013-01-17 19:22:00,
2013-01-17 14:28:00,27.1,15.8,30.04,NNE,14,2.0,3.0,62,0.00,,,0.01,Wunderground v.1.13,2013-01-17 19:28:00,
2013-01-17 14:34:00,26.9,15.2,30.05,East,82,2.0,2.0,61,0.00,,,0.01,Wunderground v.1.13,2013-01-17 19:34:00,
2013-01-17 14:39:00,26.9,15.2,30.05,NE,37,2.0,2.0,61,0.00,,,0.01,Wunderground v.1.13,2013-01-17 19:39:00,
2013-01-17 14:45:00,26.7,14.3,30.06,North,9,2.0,4.0,59,0.00,,,0.01,Wunderground v.1.13,2013-01-17 19:45:00,
2013-01-17 14:50:00,26.5,13.7,30.06,East,83,2.0,2.0,58,0.00,,,0.01,Wunderground v.1.13,2013-01-17 19:50:00,
2013-01-17 14:56:00,26.2,12.6,30.07,ESE,121,2.0,2.0,56,0.00,,,0.01,Wunderground v.1.13,2013-01-17 19:56:00,
2013-01-17 15:01:00,26.0,12.8,30.07,NNW,342,2.0,2.0,57,0.00,,,0.01,Wunderground v.1.13,2013-01-17 20:01:00,
2013-01-17 15:06:00,25.8,12.6,30.07,NNW,338,2.0,3.0,57,0.00,,,0.01,Wunderground v.1.13,2013-01-17 20:06:00,
2013-01-17 15:12:00,25.6,11.7,30.07,NNW,341,2.0,5.0,55,0.00,,,0.01,Wunderground v.1.13,2013-01-17 20:12:00,
2013-01-17 15:17:00,25.4,11.9,30.07,NE,44,2.0,2.0,56,0.00,,,0.01,Wunderground v.1.13,2013-01-17 20:17:00,
2013-01-17 15:22:00,25.3,12.6,30.08,NNW,344,1.0,1.0,58,0.00,,,0.01,Wunderground v.1.13,2013-01-17 20:22:00,
2013-01-17 15:28:00,25.0,11.9,30.08,NNE,33,1.0,1.0,57,0.00,,,0.01,Wunderground v.1.13,2013-01-17 20:28:00,
2013-01-17 15:33:00,24.8,11.7,30.08,West,272,1.0,4.0,57,0.00,,,0.01,Wunderground v.1.13,2013-01-17 20:33:00,
2013-01-17 15:39:00,24.7,11.2,30.09,NW,319,2.0,3.0,56,0.00,,,0.01,Wunderground v.1.13,2013-01-17 20:39:00,
2013-01-17 15:44:00,24.5,11.8,30.09,NW,306,2.0,3.0,58,0.00,,,0.01,Wunderground v.1.13,2013-01-17 20:44:00,
2013-01-17 15:50:00,24.2,11.5,30.09,NE,44,1.0,1.0,58,0.00,,,0.01,Wunderground v.1.13,2013-01-17 20:50:00,
2013-01-17 15:55:00,23.9,11.6,30.09,NNW,338,1.0,1.0,59,0.00,,,0.01,Wunderground v.1.13,2013-01-17 20:55:00,
2013-01-17 16:01:00,23.6,11.0,30.09,NE,36,1.0,1.0,58,0.00,,,0.01,Wunderground v.1.13,2013-01-17 21:01:00,
2013-01-17 16:07:00,23.3,10.7,30.10,ENE,59,1.0,1.0,58,0.00,,,0.01,Wunderground v.1.13,2013-01-17 21:07:00,
2013-01-17 16:12:00,23.1,10.9,30.10,ENE,58,1.0,3.0,59,0.00,,,0.01,Wunderground v.1.13,2013-01-17 21:12:00,
2013-01-17 16:18:00,22.8,10.6,30.10,ENE,58,1.0,3.0,59,0.00,,,0.01,Wunderground v.1.13,2013-01-17 21:18:00,
2013-01-17 16:23:00,22.4,10.2,30.10,NE,49,1.0,4.0,59,0.00,,,0.01,Wunderground v.1.13,2013-01-17 21:23:00,
2013-01-17 16:29:00,21.9,9.4,30.10,NW,307,1.0,5.0,58,0.00,,,0.01,Wunderground v.1.13,2013-01-17 21:29:00,
2013-01-17 16:34:00,21.5,9.7,30.11,NW,307,1.0,1.0,60,0.00,,,0.01,Wunderground v.1.13,2013-01-17 21:34:00,
2013-01-17 16:40:00,21.0,9.6,30.11,NW,307,0.0,0.0,61,0.00,,,0.01,Wunderground v.1.13,2013-01-17 21:40:00,
2013-01-17 16:46:00,20.6,8.9,30.11,NW,307,0.0,1.0,60,0.00,,,0.01,Wunderground v.1.13,2013-01-17 21:46:00,
2013-01-17 16:51:00,20.5,8.8,30.11,NW,307,0.0,0.0,60,0.00,,,0.01,Wunderground v.1.13,2013-01-17 21:51:00,
2013-01-17 16:57:00,20.3,8.6,30.11,NW,315,0.0,0.0,60,0.00,,,0.01,Wunderground v.1.13,2013-01-17 21:57:00,
2013-01-17 17:03:00,20.1,8.4,30.11,NW,315,0.0,1.0,60,0.00,,,0.01,Wunderground v.1.13,2013-01-17 22:03:00,
2013-01-17 17:08:00,19.8,8.1,30.11,NW,315,0.0,0.0,60,0.00,,,0.01,Wunderground v.1.13,2013-01-17 22:08:00,
2013-01-17 17:14:00,19.6,8.0,30.11,NW,315,0.0,1.0,60,0.00,,,0.01,Wunderground v.1.13,2013-01-17 22:14:00,
2013-01-17 17:19:00,19.2,7.9,30.10,NW,315,0.0,0.0,61,0.00,,,0.01,Wunderground v.1.13,2013-01-17 22:19:00,
2013-01-17 17:25:00,18.7,7.5,30.11,NW,315,0.0,0.0,61,0.00,,,0.01,Wunderground v.1.13,2013-01-17 22:25:00,
2013-01-17 17:31:00,18.3,7.1,30.12,NW,315,0.0,0.0,61,0.00,,,0.01,Wunderground v.1.13,2013-01-17 22:31:00,
2013-01-17 17:36:00,18.1,6.9,30.12,NW,315,0.0,0.0,61,0.00,,,0.01,Wunderground v.1.13,2013-01-17 22:36:00,
2013-01-17 17:42:00,18.0,7.5,30.12,NW,314,0.0,1.0,63,0.00,,,0.01,Wunderground v.1.13,2013-01-17 22:42:00,
2013-01-17 17:47:00,17.6,8.2,30.13,NW,315,0.0,0.0,66,0.00,,,0.01,Wunderground v.1.13,2013-01-17 22:47:00,
2013-01-17 17:53:00,16.9,8.2,30.13,NW,315,0.0,0.0,68,0.00,,,0.01,Wunderground v.1.13,2013-01-17 22:53:00,
2013-01-17 17:58:00,16.7,8.0,30.12,NW,315,0.0,0.0,68,0.00,,,0.01,Wunderground v.1.13,2013-01-17 22:58:00,
2013-01-17 18:03:00,16.5,8.1,30.12,NW,315,0.0,0.0,69,0.00,,,0.01,Wunderground v.1.13,2013-01-17 23:03:00,
2013-01-17 18:09:00,16.4,8.0,30.12,NW,315,0.0,0.0,69,0.00,,,0.01,Wunderground v.1.13,2013-01-17 23:09:00,
2013-01-17 18:14:00,16.5,8.1,30.13,NW,314,0.0,1.0,69,0.00,,,0.01,Wunderground v.1.13,2013-01-17 23:14:00,
2013-01-17 18:19:00,16.7,7.3,30.13,NW,314,0.0,0.0,66,0.00,,,0.01,Wunderground v.1.13,2013-01-17 23:19:00,
2013-01-17 18:25:00,16.8,7.7,30.13,NW,314,0.0,0.0,67,0.00,,,0.01,Wunderground v.1.13,2013-01-17 23:25:00,
2013-01-17 18:31:00,16.7,7.0,30.13,NW,315,0.0,0.0,65,0.00,,,0.01,Wunderground v.1.13,2013-01-17 23:31:00,
2013-01-17 18:37:00,16.6,6.9,30.13,NW,314,0.0,0.0,65,0.00,,,0.01,Wunderground v.1.13,2013-01-17 23:37:00,
2013-01-17 18:42:00,16.5,6.4,30.14,NW,314,0.0,0.0,64,0.00,,,0.01,Wunderground v.1.13,2013-01-17 23:42:00,
2013-01-17 18:48:00,16.5,6.4,30.15,NW,315,0.0,0.0,64,0.00,,,0.01,Wunderground v.1.13,2013-01-17 23:48:00,
2013-01-17 18:54:00,16.7,5.9,30.15,NW,314,0.0,0.0,62,0.00,,,0.01,Wunderground v.1.13,2013-01-17 23:54:00,
2013-01-17 18:59:00,16.8,6.4,30.15,NW,314,0.0,0.0,63,0.00,,,0.01,Wunderground v.1.13,2013-01-17 23:59:00,
2013-01-17 19:05:00,16.5,6.1,30.15,NW,315,0.0,0.0,63,0.00,,,0.01,Wunderground v.1.13,2013-01-18 00:05:00,
2013-01-17 19:11:00,16.2,5.1,30.15,NW,315,0.0,1.0,61,0.00,,,0.01,Wunderground v.1.13,2013-01-18 00:11:00,
2013-01-17 19:17:00,16.0,5.6,30.15,NW,314,0.0,0.0,63,0.00,,,0.01,Wunderground v.1.13,2013-01-18 00:17:00,
2013-01-17 19:22:00,16.0,5.3,30.15,NW,314,0.0,0.0,62,0.00,,,0.01,Wunderground v.1.13,2013-01-18 00:22:00,
2013-01-17 19:28:00,15.8,6.4,30.16,NW,315,0.0,0.0,66,0.00,,,0.01,Wunderground v.1.13,2013-01-18 00:28:00,
2013-01-17 19:34:00,15.8,5.8,30.15,NW,315,0.0,0.0,64,0.00,,,0.01,Wunderground v.1.13,2013-01-18 00:34:00,
2013-01-17 19:39:00,15.9,5.9,30.16,NW,315,0.0,0.0,64,0.00,,,0.01,Wunderground v.1.13,2013-01-18 00:39:00,
2013-01-17 19:45:00,16.1,5.7,30.16,NW,315,0.0,0.0,63,0.00,,,0.01,Wunderground v.1.13,2013-01-18 00:45:00,
2013-01-17 19:50:00,16.2,6.8,30.16,NW,315,0.0,0.0,66,0.00,,,0.01,Wunderground v.1.13,2013-01-18 00:50:00,
2013-01-17 19:56:00,16.0,6.6,30.16,NW,314,0.0,0.0,66,0.00,,,0.01,Wunderground v.1.13,2013-01-18 00:56:00,
2013-01-17 20:02:00,15.9,6.2,30.16,NW,315,0.0,0.0,65,0.00,,,0.01,Wunderground v.1.13,2013-01-18 01:02:00,
2013-01-17 20:07:00,15.9,6.9,30.16,NW,314,0.0,0.0,67,0.00,,,0.01,Wunderground v.1.13,2013-01-18 01:07:00,
2013-01-17 20:13:00,15.8,6.4,30.16,NW,314,0.0,0.0,66,0.00,,,0.01,Wunderground v.1.13,2013-01-18 01:13:00,
2013-01-17 20:18:00,15.8,6.4,30.16,NW,315,0.0,0.0,66,0.00,,,0.01,Wunderground v.1.13,2013-01-18 01:18:00,
2013-01-17 20:24:00,15.7,6.0,30.16,NW,315,0.0,0.0,65,0.00,,,0.01,Wunderground v.1.13,2013-01-18 01:24:00,
2013-01-17 20:30:00,15.6,5.6,30.16,NW,315,0.0,0.0,64,0.00,,,0.01,Wunderground v.1.13,2013-01-18 01:30:00,
2013-01-17 20:35:00,15.6,5.9,30.16,NW,315,0.0,0.0,65,0.00,,,0.01,Wunderground v.1.13,2013-01-18 01:35:00,
2013-01-17 20:40:00,15.5,5.8,30.15,NW,315,0.0,0.0,65,0.00,,,0.01,Wunderground v.1.13,2013-01-18 01:40:00,
2013-01-17 20:46:00,15.5,6.2,30.14,NW,314,0.0,0.0,66,0.00,,,0.01,Wunderground v.1.13,2013-01-18 01:46:00,
2013-01-17 20:52:00,15.5,5.5,30.14,NW,314,0.0,0.0,64,0.00,,,0.01,Wunderground v.1.13,2013-01-18 01:52:00,
2013-01-17 20:57:00,15.4,5.7,30.14,NW,315,0.0,0.0,65,0.00,,,0.01,Wunderground v.1.13,2013-01-18 01:57:00,
2013-01-17 21:03:00,15.3,5.3,30.14,NW,315,0.0,0.0,64,0.00,,,0.01,Wunderground v.1.13,2013-01-18 02:03:00,
2013-01-17 21:09:00,15.3,5.6,30.15,NW,315,0.0,0.0,65,0.00,,,0.01,Wunderground v.1.13,2013-01-18 02:09:00,
2013-01-17 21:15:00,15.3,4.9,30.14,NW,315,0.0,0.0,63,0.00,,,0.01,Wunderground v.1.13,2013-01-18 02:15:00,
2013-01-17 21:20:00,15.3,4.6,30.14,NW,321,0.0,0.0,62,0.00,,,0.01,Wunderground v.1.13,2013-01-18 02:20:00,
2013-01-17 21:26:00,15.4,4.3,30.15,NW,321,0.0,1.0,61,0.00,,,0.01,Wunderground v.1.13,2013-01-18 02:26:00,
2013-01-17 21:32:00,15.4,4.7,30.14,NW,321,0.0,0.0,62,0.00,,,0.01,Wunderground v.1.13,2013-01-18 02:32:00,
2013-01-17 21:37:00,15.4,4.7,30.14,NW,321,0.0,0.0,62,0.00,,,0.01,Wunderground v.1.13,2013-01-18 02:37:00,
2013-01-17 21:43:00,15.3,4.9,30.14,NW,321,0.0,0.0,63,0.00,,,0.01,Wunderground v.1.13,2013-01-18 02:43:00,
2013-01-17 21:49:00,15.3,4.9,30.14,NW,321,0.0,1.0,63,0.00,,,0.01,Wunderground v.1.13,2013-01-18 02:49:00,
2013-01-17 21:54:00,15.2,4.9,30.14,NW,321,0.0,0.0,63,0.00,,,0.01,Wunderground v.1.13,2013-01-18 02:54:00,
2013-01-17 22:00:00,15.1,4.8,30.14,NW,321,0.0,0.0,63,0.00,,,0.01,Wunderground v.1.13,2013-01-18 03:00:00,
2013-01-17 22:05:00,15.0,4.7,30.14,NW,321,0.0,0.0,63,0.00,,,0.01,Wunderground v.1.13,2013-01-18 03:05:00,
2013-01-17 22:11:00,15.0,4.3,30.14,NW,322,0.0,0.0,62,0.00,,,0.01,Wunderground v.1.13,2013-01-18 03:11:00,
2013-01-17 22:17:00,14.9,3.9,30.14,NW,322,0.0,0.0,61,0.00,,,0.01,Wunderground v.1.13,2013-01-18 03:17:00,
2013-01-17 22:22:00,14.9,3.5,30.13,North,5,0.0,1.0,60,0.00,,,0.01,Wunderground v.1.13,2013-01-18 03:22:00,
2013-01-17 22:28:00,14.9,3.9,30.13,North,360,0.0,0.0,61,0.00,,,0.01,Wunderground v.1.13,2013-01-18 03:28:00,
2013-01-17 22:34:00,14.8,3.8,30.14,North,360,0.0,0.0,61,0.00,,,0.01,Wunderground v.1.13,2013-01-18 03:34:00,
2013-01-17 22:40:00,14.7,3.7,30.14,North,5,0.0,0.0,61,0.00,,,0.01,Wunderground v.1.13,2013-01-18 03:40:00,
2013-01-17 22:45:00,14.6,3.6,30.14,North,5,0.0,0.0,61,0.00,,,0.01,Wunderground v.1.13,2013-01-18 03:45:00,
2013-01-17 22:51:00,14.6,4.6,30.12,North,5,0.0,0.0,64,0.00,,,0.01,Wunderground v.1.13,2013-01-18 03:51:00,
2013-01-17 22:56:00,14.5,3.8,30.13,North,355,0.0,3.0,62,0.00,,,0.01,Wunderground v.1.13,2013-01-18 03:56:00,
2013-01-17 23:02:00,14.5,3.8,30.13,NE,37,1.0,1.0,62,0.00,,,0.01,Wunderground v.1.13,2013-01-18 04:02:00,
2013-01-17 23:07:00,14.4,3.4,30.12,NNW,348,1.0,2.0,61,0.00,,,0.01,Wunderground v.1.13,2013-01-18 04:07:00,
2013-01-17 23:13:00,14.3,2.9,30.13,NW,311,1.0,1.0,60,0.00,,,0.01,Wunderground v.1.13,2013-01-18 04:13:00,
2013-01-17 23:18:00,14.2,3.6,30.13,NNE,32,0.0,1.0,62,0.00,,,0.01,Wunderground v.1.13,2013-01-18 04:18:00,
2013-01-17 23:24:00,14.0,2.7,30.13,NNE,17,1.0,4.0,60,0.00,,,0.01,Wunderground v.1.13,2013-01-18 04:24:00,
2013-01-17 23:30:00,13.8,2.5,30.13,North,360,2.0,2.0,60,0.00,,,0.01,Wunderground v.1.13,2013-01-18 04:30:00,
2013-01-17 23:35:00,13.6,2.6,30.13,NNW,336,1.0,2.0,61,0.00,,,0.01,Wunderground v.1.13,2013-01-18 04:35:00,
2013-01-17 23:41:00,13.4,2.4,30.14,East,81,1.0,1.0,61,0.00,,,0.01,Wunderground v.1.13,2013-01-18 04:41:00,
2013-01-17 23:46:00,13.2,2.3,30.14,ENE,59,1.0,2.0,61,0.00,,,0.01,Wunderground v.1.13,2013-01-18 04:46:00,
2013-01-17 23:51:00,13.1,1.8,30.13,NNE,26,1.0,1.0,60,0.00,,,0.01,Wunderground v.1.13,2013-01-18 04:51:00,
2013-01-17 23:57:00,12.9,1.2,30.12,North,360,2.0,2.0,59,0.00,,,0.01,Wunderground v.1.13,2013-01-18 04:57:00,